Date String (YYYY-MM-DD hh:mm:ss) UTC,Instrument flags,Ambient pressure (hPa),Sample flow (lpm),Bypass flow (lpm),Sample temperature (°C),Ambient temperature (°C),ASC tube jacket temperature (°C),LED temperature (°C),Box temperature (°C),Sample RH (%),Span deviation,Mass concentration (μg/m³),Mass concentration (μg/m³),Mass concentration (μg/m³)
DateTimeUTC,F1_M11,P_M11,Q1_M11,Q2_M11,T1_M11,T2_M11,T3_M11,T4_M11,T5_M11,U1_M11,ZSPAN_M11,X2_M11,X0_M11,X1_M11
2022-05-04 16:00:00,,0824.2,5.01,0.00,24.7,23.8,00.0,33.6,26.5,22.2,0000.0,0001.39,0002.27,0001.01
2022-05-04 16:01:00,,0824.3,5.00,0.00,24.7,23.8,00.0,33.6,26.5,22.2,0000.0,0001.37,0002.21,0001.05
2022-05-04 16:02:00,,0824.3,4.99,0.00,24.7,23.8,00.0,33.6,26.5,22.3,0000.0,0001.36,0002.16,0001.08
2022-05-04 16:03:00,,0824.3,5.01,0.00,24.7,23.8,00.0,33.6,26.5,23.2,0000.0,0001.39,0002.12,0001.12
2022-05-04 16:04:00,,0824.2,5.00,0.00,24.7,23.8,00.0,33.6,26.5,24.0,0000.0,0001.39,0002.04,0001.15
2022-05-04 16:05:00,,0824.2,5.00,0.00,24.7,23.8,00.0,33.6,26.5,22.9,0000.0,0001.40,0002.01,0001.18
2022-05-04 16:06:00,,0824.3,4.99,0.00,24.7,23.8,00.0,33.6,26.5,22.7,0000.0,0001.49,0002.14,0001.23
2022-05-04 16:07:00,,0824.3,5.01,0.00,24.7,23.8,00.0,33.6,26.5,22.6,0000.0,0001.57,0002.27,0001.29
2022-05-04 16:08:00,,0824.3,4.99,0.00,24.7,23.8,00.0,33.6,26.5,22.7,0000.0,0001.61,0002.18,0001.34
2022-05-04 16:09:00,,0824.3,5.01,0.00,24.7,23.8,00.0,33.6,26.5,22.7,0000.0,0001.60,0002.07,0001.38
2022-05-04 16:10:00,,0824.3,4.99,0.00,24.7,23.8,00.0,33.6,26.5,22.6,0000.0,0001.61,0002.08,0001.38
2022-05-04 16:11:00,,0824.2,5.00,0.00,24.7,23.8,00.0,33.6,26.5,22.6,0000.0,0001.62,0002.10,0001.38
2022-05-04 16:12:00,,0824.3,4.99,0.00,24.7,23.8,00.0,33.6,26.5,22.6,0000.0,0001.60,0002.04,0001.39
2022-05-04 16:13:00,,0824.3,5.00,0.00,24.7,23.8,00.0,33.6,26.5,22.5,0000.0,0001.58,0002.00,0001.38
2022-05-04 16:14:00,,0824.3,5.00,0.00,24.7,23.8,00.0,33.6,26.5,22.4,0000.0,0001.58,0002.01,0001.37
2022-05-04 16:15:00,,0824.3,5.01,0.00,24.7,23.8,00.0,33.6,26.6,22.5,0000.0,0001.57,0002.00,0001.36
2022-05-04 16:16:00,,0824.3,4.99,0.00,24.7,23.8,00.0,33.6,26.6,22.5,0000.0,0001.56,0001.97,0001.36
2022-05-04 16:17:00,,0824.3,5.00,0.00,24.7,23.8,00.0,33.6,26.5,22.6,0000.0,0001.50,0001.88,0001.33
2022-05-04 16:18:00,,0824.3,5.01,0.00,24.7,23.8,00.0,33.6,26.5,22.5,0000.0,0001.47,0001.81,0001.31
2022-05-04 16:19:00,,0824.3,4.99,0.00,24.7,23.8,00.0,33.6,26.6,22.4,0000.0,0001.47,0001.81,0001.30
2022-05-04 16:20:00,,0824.3,5.01,0.00,24.7,23.8,00.0,33.6,26.5,22.4,0000.0,0001.50,0001.88,0001.31
2022-05-04 16:21:00,,0824.3,5.01,0.00,24.7,23.8,00.0,33.6,26.5,22.6,0000.0,0001.53,0001.96,0001.32
2022-05-04 16:22:00,,0824.3,4.99,0.00,24.7,23.8,00.0,33.6,26.6,22.6,0000.0,0001.57,0002.22,0001.34
2022-05-04 16:23:00,,0824.4,5.01,0.00,24.7,23.9,00.0,33.6,26.6,22.7,0000.0,0001.65,0002.40,0001.36
2022-05-04 16:24:00,,0824.3,4.99,0.00,24.7,23.9,00.0,33.6,26.6,22.5,0000.0,0001.75,0002.53,0001.43
2022-05-04 16:25:00,,0824.3,4.99,0.00,24.7,23.9,00.0,33.6,26.6,22.4,0000.0,0001.79,0002.56,0001.50
2022-05-04 16:26:00,,0824.3,5.00,0.00,24.7,23.9,00.0,33.6,26.6,22.5,0000.0,0001.86,0002.65,0001.57
2022-05-04 16:27:00,,0824.3,5.00,0.00,24.7,23.8,00.0,33.7,26.6,22.5,0000.0,0001.96,0002.80,0001.66
2022-05-04 16:28:00,,0824.3,5.00,0.00,24.7,23.8,00.0,33.7,26.6,22.5,0000.0,0002.06,0002.93,0001.74
2022-05-04 16:29:00,,0824.3,4.99,0.00,24.7,23.8,00.0,33.6,26.5,22.6,0000.0,0002.14,0003.06,0001.80
2022-05-04 16:30:00,,0824.3,5.01,0.00,24.7,23.8,00.0,33.7,26.5,22.6,0000.0,0002.22,0003.17,0001.87
2022-05-04 16:31:00,,0824.2,4.99,0.00,24.7,23.8,00.0,33.7,26.5,22.5,0000.0,0002.27,0003.22,0001.94
2022-05-04 16:32:00,,0824.2,5.01,0.00,24.7,23.8,00.0,33.7,26.5,22.5,0000.0,0002.33,0003.33,0002.00
2022-05-04 16:33:00,,0824.2,4.99,0.00,24.7,23.8,00.0,33.7,26.5,22.5,0000.0,0002.36,0003.30,0002.06
2022-05-04 16:34:00,,0824.3,5.01,0.00,24.7,23.8,00.0,33.7,26.6,22.5,0000.0,0002.35,0003.20,0002.09
2022-05-04 16:35:00,,0824.2,4.99,0.00,24.7,23.8,00.0,33.7,26.6,22.4,0000.0,0002.28,0003.06,0002.06
2022-05-04 16:36:00,,0824.2,5.01,0.00,24.7,23.8,00.0,33.7,26.6,22.3,0000.0,0002.21,0002.95,0002.00
2022-05-04 16:37:00,,0824.2,5.00,0.00,24.7,23.8,00.0,33.6,26.6,22.3,0000.0,0002.14,0002.86,0001.94
2022-05-04 16:38:00,,0824.2,5.00,0.00,24.7,23.8,00.0,33.6,26.5,22.1,0000.0,0002.03,0002.69,0001.84
2022-05-04 16:39:00,,0824.3,5.01,0.00,24.7,23.8,00.0,33.6,26.5,22.0,0000.0,0001.91,0002.48,0001.76
2022-05-04 16:40:00,,0824.3,4.99,0.00,24.7,23.8,00.0,33.6,26.5,21.8,0000.0,0001.81,0002.32,0001.68
2022-05-04 16:41:00,,0824.3,5.00,0.00,24.7,23.8,00.0,33.6,26.5,21.7,0000.0,0001.68,0002.12,0001.59
2022-05-04 16:42:00,,0824.3,5.00,0.00,24.7,23.8,00.0,33.6,26.5,21.7,0000.0,0001.56,0001.98,0001.49
2022-05-04 16:43:00,,0824.3,5.01,0.00,24.7,23.7,00.0,33.6,26.5,21.8,0000.0,0001.44,0001.77,0001.40
2022-05-04 16:44:00,,0824.2,5.00,0.00,24.7,23.7,00.0,33.6,26.5,21.8,0000.0,0001.34,0001.44,0001.31
2022-05-04 16:45:00,,0824.2,4.99,0.00,24.6,23.7,00.0,33.6,26.5,22.0,0000.0,0001.29,0001.41,0001.25
2022-05-04 16:46:00,,0824.2,5.02,0.00,24.6,23.7,00.0,33.6,26.5,22.1,0000.0,0001.26,0001.43,0001.21
2022-05-04 16:47:00,,0824.2,4.99,0.00,24.6,23.7,00.0,33.6,26.5,22.0,0000.0,0001.27,0001.55,0001.19
2022-05-04 16:48:00,,0824.2,5.00,0.00,24.6,23.8,00.0,33.6,26.5,22.0,0000.0,0001.28,0001.60,0001.19
2022-05-04 16:49:00,,0824.2,4.99,0.00,24.6,23.7,00.0,33.6,26.5,22.0,0000.0,0001.31,0001.64,0001.20
2022-05-04 16:50:00,,0824.3,5.01,0.00,24.6,23.7,00.0,33.6,26.4,22.1,0000.0,0001.33,0001.68,0001.22
2022-05-04 16:51:00,,0824.2,5.00,0.00,24.6,23.7,00.0,33.6,26.4,22.1,0000.0,0001.34,0001.71,0001.23
2022-05-04 16:52:00,,0824.3,5.01,0.00,24.6,23.7,00.0,33.6,26.4,22.1,0000.0,0001.35,0001.80,0001.22
2022-05-04 16:53:00,,0824.3,4.99,0.00,24.6,23.7,00.0,33.6,26.4,22.3,0000.0,0001.36,0001.90,0001.22
2022-05-04 16:54:00,,0824.3,5.01,0.00,24.6,23.7,00.0,33.6,26.4,22.4,0000.0,0001.35,0001.89,0001.21
2022-05-04 16:55:00,,0824.3,4.99,0.00,24.6,23.7,00.0,33.6,26.4,22.3,0000.0,0001.33,0001.89,0001.19
2022-05-04 16:56:00,,0824.3,4.99,0.00,24.6,23.7,00.0,33.6,26.4,22.4,0000.0,0001.33,0001.87,0001.17
2022-05-04 16:57:00,,0824.3,5.00,0.00,24.6,23.7,00.0,33.6,26.4,22.4,0000.0,0001.29,0001.78,0001.14
2022-05-04 16:58:00,,0824.3,4.99,0.00,24.6,23.7,00.0,33.6,26.3,22.4,0000.0,0001.26,0001.68,0001.12
2022-05-04 16:59:00,,0824.3,5.01,0.00,24.6,23.7,00.0,33.6,26.4,22.4,0000.0,0001.24,0001.61,0001.11
